Погода в Зимарях

Россия / Алтайский край     53°11′09″N   83°27′52″E
темп.,
°C
ветер,
м/с
пор.,
м/с
влажн.,
%
обл.,
%
осадки,
мм/ч
давл.,
гПа
погр.,
м
6 марта, сб
сб601:00−5юз101977100 0.0 1023832
04:00−6юз91976100 0.0 1022779
07:00−7юз91977100 0.0 1022627
10:00−7ююз102076100 0.0 1022695
13:00−4юз122072100 0.0 1019919
16:00−2юз111971100 0.0 10171072
19:00−3юз91879100 0.0 1016898
22:00−4юз81685100 0.0 1016733
7 марта, вс
вс701:00−4юз71586100 0.0 1015641
04:00−4юз71585100 0.0 1014588
07:00−5юз71394100 0.2 1017507
10:00−5юз61193100 0.2 1018446
13:00−3зюз5894100 0.4 1020575
16:00−2зюз4792100 0.3 1021651
19:00−4зюз239399 0.3 102225
22:00−7юз2295100 0.0 102321
8 марта, пн
пн801:00−7ююв2396100 0.0 102226
04:00−7ююв349899 0.0 102080
07:00−8ю469292 0.0 101986
10:00−5ююв599198 0.0 1017241
13:00−1ю7148099 0.0 1014778
16:00+1ююз101875100 0.0 1012787
19:000юз91882100 0.0 1012838
22:00−1юз81692100 0.1 1015898
9 марта, вт
вт901:00−3з71291100 0.4 1019574
04:00−12зюз499330 0.0 1023186
07:00−14зюз489346 0.0 1026143
10:00−12зюз47852 0.0 1028228
13:00−7ююз34767 0.0 1028393
16:00−7ю35880 0.0 1025291
19:00−9ююв34919 0.0 102365
22:00−5ююв4109788 0.1 1021256
10 марта, ср
ср1001:00−5ю479790 0.3 1018177
04:00−2ююз5109794 0.2 1016473
07:000юз599697 0.4 1016470
10:00−1ююз359599 0.1 1016291
13:00−1ю4510099 0.1 1015345
16:000ю46100100 0.0 1012336
19:00−1юв359999 0.0 1009131
22:00−1ююв61288100 0.0 1005272